Wind_Speed
45 45 47 49 50 50 50 54 52 52 54 55 52 50 50 52 52 55 56 55 58 62 65 65 61 62 64
49 47 48 49 52 52 55 55 52 56 57 56 50 49 52 51 50 52 53 57 60 61 60 60 61 63 63
50 50 53 50 51 53 58 59 56 56 58 58 53 53 53 52 53 54 56 58 57 57 56 59 61 61 61
47 48 51 52 53 56 60 61 61 61 60 59 52 55 52 53 51 55 56 54 53 55 57 58 59 59 61
49 51 51 51 54 58 63 63 64 61 58 53 53 52 52 48 50 53 52 52 54 56 57 58 58 58 59
52 56 58 56 56 57 60 59 59 51 50 51 50 49 48 48 51 50 51 52 54 55 54 54 56 60 62
52 55 58 57 54 58 58 56 48 46 45 46 46 47 48 47 48 49 51 51 51 50 54 57 60 62 63
51 50 55 55 57 55 47 47 44 40 42 40 43 45 46 45 46 49 50 48 49 54 57 59 61 60 63
52 55 56 54 55 54 54 45 36 37 37 37 39 40 42 44 48 47 44 47 53 56 58 58 60 63 67
56 57 57 57 53 46 39 34 33 34 34 34 36 39 40 41 43 43 47 51 55 56 57 60 63 66 68
57 53 51 49 40 30 28 28 31 31 34 35 38 35 35 36 42 46 49 52 53 56 59 62 65 69 71
51 49 46 40 28 26 29 31 32 34 36 36 34 35 38 40 44 47 50 51 55 57 60 64 68 73 79
49 45 41 33 28 28 30 32 33 35 33 33 36 38 41 43 44 46 49 53 56 60 64 69 74 80 83
46 43 35 28 30 31 29 31 31 31 34 36 38 41 43 44 45 48 52 54 57 60 66 74 79 82 81
42 35 29 30 29 28 28 30 32 33 36 38 41 43 44 45 48 50 53 56 63 67 71 75 78 78 82
34 31 30 28 28 29 30 31 34 35 38 41 42 42 44 47 50 52 54 60 66 71 74 75 72 79 82
31 28 28 30 31 30 32 33 36 38 40 40 39 42 46 49 51 53 58 64 68 70 72 73 77 77 80
Wind_Direction
246 253 257 260 266 270 273 277 282 277 280 285 292 296 297 297 298 300 300 302 304 307 308 308 308 309 311
246 250 255 259 263 267 272 275 284 281 282 286 293 294 296 296 298 300 303 304 305 307 309 310 311 312 314
252 252 253 256 262 266 270 277 281 284 283 287 291 290 294 295 297 302 304 304 309 308 310 313 314 314 315
259 262 262 260 260 264 269 275 280 284 286 291 291 288 291 295 301 301 305 308 308 311 313 315 315 315 318
260 261 262 267 271 274 274 280 283 286 291 288 285 287 292 299 299 302 307 309 313 316 316 316 316 318 317
262 262 263 267 272 274 279 285 284 285 281 281 285 291 296 297 300 306 309 313 315 315 316 318 318 316 314
258 257 261 268 273 276 279 283 282 277 279 281 290 292 296 301 304 308 310 312 316 316 317 317 316 315 316
249 256 263 269 270 273 271 270 271 275 280 290 292 295 297 302 305 306 310 314 314 315 315 315 316 317 318
254 260 267 266 266 266 269 270 274 278 289 297 294 296 300 303 304 308 311 313 312 313 314 315 319 320 321
260 263 266 266 266 264 264 273 279 287 294 295 296 298 299 300 303 309 310 311 311 314 316 319 320 320 320
262 264 260 259 260 264 271 278 286 291 294 293 297 296 300 302 303 310 311 310 315 317 319 318 320 321 322
254 252 251 249 259 275 280 284 287 289 290 292 292 297 303 307 310 311 312 315 318 318 318 320 322 325 328
243 241 244 254 270 279 279 282 285 287 287 290 294 301 305 307 312 313 313 315 317 320 321 320 321 321 324
236 243 249 263 269 273 278 279 280 284 290 294 298 303 305 307 309 312 312 314 317 320 321 321 320 323 327
243 246 261 266 266 269 272 275 283 289 292 298 303 302 305 308 309 311 313 316 317 318 318 321 325 326 328
243 256 256 256 262 267 274 281 285 291 295 296 300 305 304 307 308 310 313 316 317 318 319 321 325 327 329
250 247 251 257 264 272 276 281 287 291 294 300 303 305 306 306 308 311 314 314 315 318 320 324 325 328 327
Height
5806 5809 5812 5813 5815 5813 5811 5809 5806 5804 5802 5800 5797 5794 5790 5786 5783 5779 5775 5769 5764 5758 5751 5744 5735 5728 5721
5796 5800 5802 5804 5805 5803 5801 5798 5797 5795 5793 5791 5788 5785 5780 5777 5772 5768 5763 5758 5752 5746 5738 5732 5725 5717 5709
5786 5789 5791 5793 5794 5793 5791 5789 5788 5785 5783 5780 5778 5775 5770 5767 5762 5759 5753 5746 5741 5734 5728 5721 5713 5706 5698
5777 5779 5781 5782 5782 5781 5781 5779 5778 5775 5772 5769 5767 5764 5760 5757 5754 5748 5742 5737 5731 5724 5716 5709 5701 5694 5687
5767 5769 5770 5770 5770 5769 5769 5770 5768 5765 5763 5760 5756 5752 5750 5747 5743 5737 5732 5727 5721 5714 5706 5699 5691 5684 5674
5756 5759 5758 5759 5759 5757 5759 5758 5757 5755 5752 5748 5744 5741 5739 5735 5732 5727 5722 5716 5711 5703 5696 5689 5681 5674 5664
5744 5746 5746 5747 5750 5748 5747 5747 5745 5744 5743 5739 5734 5731 5728 5725 5721 5717 5711 5706 5700 5693 5686 5679 5671 5663 5651
5732 5734 5738 5738 5737 5736 5736 5734 5733 5733 5732 5731 5726 5723 5719 5715 5711 5706 5702 5696 5690 5683 5676 5668 5660 5651 5638
5722 5724 5725 5724 5724 5724 5724 5726 5725 5726 5723 5721 5719 5716 5711 5704 5701 5698 5692 5686 5680 5672 5665 5658 5649 5640 5628
5712 5713 5713 5714 5713 5714 5716 5717 5717 5716 5713 5712 5710 5708 5704 5696 5691 5687 5682 5678 5670 5662 5654 5645 5636 5629 5618
5700 5702 5703 5705 5707 5708 5708 5708 5708 5707 5706 5704 5702 5698 5694 5691 5684 5679 5674 5667 5659 5650 5640 5631 5622 5613 5608
5689 5691 5694 5697 5700 5699 5699 5700 5699 5699 5697 5694 5692 5690 5687 5683 5677 5671 5665 5659 5652 5642 5632 5622 5612 5600 5585
5679 5682 5686 5690 5689 5690 5691 5691 5690 5690 5688 5685 5684 5681 5678 5674 5669 5666 5658 5649 5643 5636 5624 5612 5604 5592 5583
5669 5674 5678 5679 5680 5682 5682 5683 5683 5681 5680 5679 5675 5672 5668 5665 5661 5655 5650 5644 5635 5627 5616 5600 5589 5575 5565
5662 5666 5668 5670 5671 5673 5674 5674 5674 5673 5672 5669 5666 5663 5660 5655 5651 5646 5640 5633 5625 5617 5607 5593 5576 5564 5554
5654 5656 5659 5661 5663 5664 5665 5666 5666 5664 5662 5660 5658 5653 5650 5646 5643 5638 5630 5622 5613 5604 5592 5583 5571 5555 5540
5644 5647 5650 5652 5654 5655 5656 5657 5656 5655 5654 5651 5647 5643 5640 5635 5633 5628 5620 5612 5604 5594 5584 5572 5560 5547 5532